Location: Newark
(40.5782°N, 9.2582°E)
Time: 17:41:47
(UTC+00:00)

N. Korean satellite - Visible Passes

Search period start: 14 October 2019 00:00
Search period end: 24 October 2019 00:00
Orbit: 455 x 508 km, 97.2° (Epoch: 14 October)

Date Brightness Start Highest point End Pass type
(mag) Time Alt. Az. Time Alt. Az. Time Alt. Az.
14 Oct 10.2 04:16:48 10° ENE 04:18:23 12° E 04:19:58 10° ESE visible
15 Oct 10.2 17:33:21 10° WSW 17:35:07 13° W 17:36:52 10° WNW visible
16 Oct 8.1 04:57:58 10° NNE 05:01:24 43° E 05:04:52 10° S visible
16 Oct 9.0 17:06:42 10° SSW 17:09:40 28° W 17:12:40 10° NW visible
17 Oct 9.6 04:33:15 10° NE 04:36:01 21° E 04:38:48 10° SE visible
18 Oct 10.6 04:10:14 10° E 04:10:33 10° E 04:10:51 10° E visible
19 Oct 9.9 17:24:58 10° SW 17:27:15 17° W 17:29:32 10° NW visible
20 Oct 8.6 04:50:15 10° NNE 04:53:35 34° E 04:56:58 10° SSE visible
20 Oct 8.5 16:58:39 10° SSW 17:01:49 35° W 17:05:01 10° NNW visible
21 Oct 9.9 04:25:44 10° NE 04:28:11 17° E 04:30:39 10° SE visible
23 Oct 7.3 05:07:29 10° NNE 05:11:07 60° E 05:14:45 10° S visible
23 Oct 9.6 17:16:41 10° SW 17:19:21 21° W 17:22:02 10° NW visible
